Theta_e
355 350 351 355 349 346 345 346 354 348 347 346 345 344 345 343 343 343 337 338 336 336
354 357 352 357 357 346 352 345 347 345 345 345 344 343 344 341 340 339 337 338 337 336
351 350 350 350 351 349 348 344 343 344 344 343 342 341 342 342 339 337 337 339 336 334
347 348 348 345 345 344 345 343 341 340 340 340 340 340 340 339 336 334 336 336 334 332
345 344 344 343 343 343 342 341 338 338 336 335 337 338 337 334 334 332 333 333 333 331
342 342 342 341 341 340 339 338 338 337 336 333 335 334 334 333 333 333 333 334 332 332
340 339 339 339 339 340 338 338 337 336 334 334 334 333 333 334 334 334 335 335 333 333
337 338 338 338 338 339 337 337 335 335 335 334 332 330 335 335 335 336 334 335 333 335
335 336 338 338 338 339 337 337 336 335 333 333 329 308 320 329 337 335 334 333 332 330
334 334 335 336 336 336 339 338 337 335 334 334 330 306 309 317 337 336 336 335 332 328
332 332 334 334 336 337 339 338 337 336 336 335 327 305 306 308 335 336 333 333 334 330
331 332 332 332 334 338 338 338 337 335 334 334 331 304 304 314 334 332 332 332 332 333
331 331 332 336 336 339 339 337 335 333 334 323 332 303 303 316 332 331 331 332 328 308
332 334 336 337 338 338 336 335 334 332 334 333 330 322 303 308 332 329 328 328 327 325
Wind_Speed
12 10 10 12 10 10 10 9 12 10 9 7 8 7 7 5 6 6 5 6 5 3
13 12 11 10 9 8 8 10 11 11 9 9 7 8 7 5 7 5 6 4 4 3
13 12 12 11 9 9 7 9 11 10 9 7 9 5 6 5 6 6 3 3 5 6
13 13 13 11 11 10 9 9 10 9 9 7 6 6 7 4 8 7 5 6 6 8
14 14 13 11 11 11 10 9 9 9 9 8 8 8 7 7 5 6 8 7 6 5
14 13 12 11 10 10 10 9 8 8 7 6 6 6 7 5 6 5 4 5 6 7
13 12 11 10 10 10 10 10 8 6 8 7 8 7 5 4 6 2 4 6 4 5
13 13 12 10 10 8 9 8 8 8 6 6 5 1 3 3 3 5 6 7 1 5
13 13 12 11 7 6 9 9 7 7 6 6 6 7 10 3 4 7 7 7 5 6
13 12 11 12 11 7 6 8 7 7 6 8 8 6 6 5 2 4 4 6 6 5
13 12 11 11 9 7 8 7 8 7 7 8 7 6 4 4 3 4 5 4 7 6
13 12 11 8 8 9 8 8 8 8 9 9 8 5 3 2 4 4 5 7 4 3
12 11 10 5 8 8 9 9 8 10 8 6 9 5 1 5 4 7 6 8 6 8
12 10 8 8 7 9 9 8 8 10 8 7 9 7 3 6 1 3 3 4 4 6
Wind_Direction
168 177 169 192 159 174 167 171 151 181 179 191 186 200 193 202 211 206 201 230 240 3
176 164 166 133 150 144 150 132 166 183 174 199 179 196 187 202 210 184 205 195 198 223
160 158 135 147 172 153 142 146 165 179 177 175 203 168 181 187 177 197 158 190 197 213
151 143 149 156 142 145 150 156 174 182 183 188 160 161 193 234 190 184 190 215 180 211
145 148 148 148 151 154 166 173 179 185 188 178 169 182 190 207 175 193 197 199 206 206
147 146 148 152 154 163 163 178 174 177 166 166 137 188 197 193 192 181 195 190 203 201
147 146 147 152 162 169 165 167 159 157 154 180 193 190 173 197 205 139 164 166 205 193
147 151 149 149 169 150 164 128 158 176 177 143 135 341 239 149 155 182 157 108 116 79
154 154 149 151 142 158 176 148 159 129 149 145 106 63 71 27 185 178 143 145 139 104
153 149 153 154 166 166 151 149 163 154 144 125 113 85 72 29 199 123 162 136 114 110
159 153 158 166 145 172 141 160 157 161 144 144 108 106 97 22 120 128 120 131 144 129
155 155 162 150 138 151 160 165 158 159 159 152 129 127 86 279 162 148 145 128 119 151
152 156 135 152 143 149 163 161 166 154 162 133 129 121 56 295 164 153 153 130 96 42
142 119 130 134 148 164 162 159 163 160 154 157 144 121 114 18 120 119 158 132 148 101